Location: Unspecified
(0.0000°N, 0.0000°E)
Time: 23:19:03
(UTC-04:00)

Hubble Space Telescope - Pass Details

Date: 30 September 2021
Orbit: 535 x 538 km, 28.5° (Epoch: 19 October)

Event Time Altitude Azimuth Distance (km) Brightness Sun altitude
Rises 14:35:39 0° 273° (W) 2,664 6.4 -11.4°
Reaches altitude 10° 14:38:25 10° 255° (WSW) 1,776 4.8 -12.1°
Maximum altitude 14:41:22 19° 208° (SSW) 1,305 3.1 -12.9°
Drops below altitude 10° 14:44:20 10° 162° (SSE) 1,781 3.3 -13.6°
Enters shadow 14:46:12 - 148° (SSE) 2,362 3.8 -14.1°
